Temp
15 16 17 16 15 15 15 15 15 16 16 16 16 16 16 17 17 17 17 17 17 17 18 18 17 18 18 18 18 17 17 17 16 14 15 21 25 24 24 24 23 22 22 23 23 22 21 21 22 22 23 23 23 24 25 24 25 24 24 23 22 23 24 26 28 27 26 24 23 23 24 24 23 23 23 24 24 24 24 24 25 25 26 25 25 24 24 24
16 16 16 16 16 15 15 15 15 15 16 16 16 16 17 17 17 17 17 17 17 17 18 17 17 17 17 18 17 17 17 16 14 13 18 25 25 24 24 24 23 23 23 23 22 22 21 22 21 22 23 23 24 24 25 25 25 24 24 23 23 25 26 28 28 26 26 25 24 24 24 24 24 24 23 24 24 24 24 24 25 25 25 25 25 25 24 24
14 16 16 16 16 15 15 15 15 15 16 16 16 17 17 17 17 17 17 17 17 18 18 17 17 17 17 17 17 17 15 14 16 19 24 26 24 24 25 24 24 23 24 23 23 23 23 23 22 22 23 23 24 25 25 25 25 25 24 24 24 26 27 28 28 27 26 25 24 24 24 25 24 24 23 24 24 24 24 24 25 25 24 24 24 25 25 24
12 15 15 15 15 15 14 14 15 15 16 16 17 17 17 17 17 17 17 17 17 18 18 17 17 17 17 17 17 16 14 16 22 25 26 26 25 24 24 24 24 24 24 24 24 24 24 24 23 23 23 23 24 25 25 25 26 26 25 24 26 27 27 28 28 27 26 25 24 24 24 24 24 24 24 24 24 24 24 24 25 25 24 24 24 25 25 24
10 12 14 14 14 14 14 14 14 15 15 16 16 17 17 17 17 17 17 17 17 17 17 18 17 17 17 16 17 15 16 21 25 26 26 26 26 25 25 24 24 24 24 24 24 24 24 24 24 24 24 24 24 25 25 26 27 26 26 26 27 28 28 28 27 26 25 25 24 24 24 24 24 24 24 25 25 24 25 25 26 26 25 25 25 25 25 24
9 10 11 13 13 13 13 14 14 14 15 15 16 17 17 17 17 17 17 17 17 17 17 18 17 17 16 16 16 15 18 24 25 26 27 26 26 25 25 25 24 24 24 24 24 24 24 24 24 24 24 24 24 25 25 27 27 26 26 28 28 29 29 28 27 26 26 25 24 24 25 24 24 24 24 25 25 24 25 26 26 26 26 25 25 25 25 24
9 9 9 10 12 13 14 14 14 14 15 15 16 16 17 17 18 18 18 17 17 17 17 18 17 17 16 16 16 15 19 24 25 26 27 26 26 26 25 24 23 23 23 23 23 24 24 24 24 24 24 25 25 25 26 27 27 26 26 28 29 29 29 28 27 26 26 25 25 25 25 24 24 25 25 25 24 24 24 26 27 27 26 26 25 25 25 24
8 8 8 9 11 13 14 14 14 14 15 15 15 16 17 17 18 18 18 18 18 18 18 18 17 17 16 16 16 17 20 24 27 27 26 26 25 25 24 23 23 23 22 23 23 24 24 24 24 25 25 25 25 26 26 27 27 27 27 28 29 30 30 28 27 26 26 26 25 25 25 24 25 25 25 25 24 24 24 25 27 27 26 26 25 25 25 25
8 8 8 9 11 13 13 14 14 14 15 15 15 16 17 17 18 18 18 18 18 18 18 18 17 16 16 15 16 20 24 27 27 27 26 26 25 24 24 23 23 22 22 23 23 23 24 24 25 25 25 25 26 26 27 27 27 28 28 29 29 30 30 28 27 26 26 26 25 25 25 25 25 25 25 25 24 24 24 25 27 27 26 26 26 26 25 25
8 8 9 10 11 13 13 14 14 14 15 15 15 16 17 18 18 18 18 18 18 19 18 18 17 16 16 16 17 22 27 27 27 27 26 26 25 24 24 24 23 22 22 22 23 23 24 25 25 26 26 26 27 27 28 28 28 29 29 30 30 30 30 28 26 26 26 26 26 25 25 24 25 26 25 25 25 24 24 26 26 26 26 26 26 26 26 25
8 8 9 10 12 13 13 14 14 15 15 15 15 16 17 18 18 18 18 19 19 19 18 18 17 16 16 16 19 24 27 27 27 27 26 26 25 25 24 24 23 22 22 22 22 23 25 25 26 27 26 26 27 27 28 28 29 30 30 30 30 30 29 27 27 26 26 26 26 26 25 24 25 26 26 25 25 24 24 25 26 26 26 26 26 26 26 25
8 8 9 10 12 12 13 14 15 15 15 15 16 17 17 19 19 19 19 19 19 19 18 18 17 16 16 16 18 24 27 26 26 26 26 26 25 26 25 25 24 23 23 22 22 24 25 26 27 27 26 27 27 27 28 29 29 30 30 30 30 29 27 27 27 26 27 26 26 26 25 24 25 25 26 26 25 25 25 25 25 26 26 26 26 26 26 26
8 8 10 11 12 12 13 14 14 15 16 16 17 17 18 19 19 19 19 19 19 19 18 18 17 16 17 18 21 25 27 26 25 25 25 25 25 25 25 25 25 24 24 24 23 24 24 25 26 26 27 27 26 27 29 29 29 30 30 29 29 27 26 27 27 27 27 26 27 27 24 24 25 25 26 26 25 26 25 25 25 26 26 26 26 26 26 26
8 9 12 12 12 12 13 14 14 15 16 17 18 18 19 20 20 20 20 20 20 19 18 17 16 16 17 20 24 26 26 25 25 25 25 25 24 24 24 24 24 24 24 25 25 25 24 25 26 26 26 26 27 27 28 28 29 30 29 29 28 25 25 28 28 27 27 26 27 28 24 25 26 26 26 26 26 26 25 25 25 26 27 26 26 26 26 26
8 10 12 13 13 13 13 14 15 15 16 18 19 20 20 20 20 21 21 21 20 19 18 17 16 16 17 21 25 26 26 26 26 27 27 25 24 24 24 23 24 24 24 24 25 25 25 26 26 25 26 27 27 26 27 28 29 29 27 25 27 25 25 28 27 27 28 26 27 27 25 26 27 26 26 26 26 26 26 25 25 26 26 27 27 26 26 26
8 10 12 13 13 13 14 14 15 15 16 18 20 21 21 21 21 22 21 21 20 18 17 16 16 16 19 23 25 26 26 26 27 28 27 27 26 26 25 23 23 23 24 24 25 26 26 26 26 26 26 27 27 26 26 26 26 28 26 23 25 25 25 26 27 28 28 27 26 26 25 27 28 27 27 27 26 27 26 26 26 26 26 27 27 26 26 26
8 10 13 13 12 13 14 15 15 16 17 19 21 22 21 21 21 21 20 20 19 18 17 17 16 16 20 24 25 26 26 27 28 28 28 27 27 27 26 24 23 23 23 24 25 26 26 27 27 26 27 26 27 27 25 22 22 25 25 24 25 26 25 25 26 28 28 27 26 26 26 27 28 27 27 27 27 27 26 26 26 26 26 27 27 26 27 26
8 11 14 13 12 13 14 15 16 16 18 20 21 21 21 20 19 19 19 18 17 17 17 17 17 18 22 24 25 25 26 27 28 28 28 28 27 28 27 25 25 24 23 25 25 26 26 27 27 26 26 26 27 26 23 22 23 23 24 24 24 26 26 25 27 28 28 27 27 26 26 27 28 27 27 27 27 27 27 26 26 26 26 27 27 26 27 26
9 12 14 14 13 13 15 16 16 16 18 21 21 21 21 20 19 19 17 16 18 19 19 18 19 21 23 23 24 25 26 27 28 28 28 28 28 28 28 27 26 25 24 24 25 26 26 26 26 25 25 25 26 26 25 25 26 25 25 25 24 24 25 27 29 29 28 27 27 26 26 27 27 27 27 27 27 27 27 27 27 27 27 27 27 27 27 26
10 12 13 14 14 14 15 16 16 17 18 20 21 20 21 20 19 20 18 18 20 21 22 21 20 21 22 23 24 25 26 27 27 28 28 28 28 27 27 27 26 25 25 25 25 25 26 25 24 24 24 26 26 26 27 27 27 27 26 25 25 24 24 28 30 29 29 27 27 27 27 27 27 27 27 27 27 27 27 27 27 27 27 27 27 27 27 27
11 12 13 14 14 14 16 17 17 17 18 19 20 20 20 20 20 20 20 20 21 21 22 22 21 21 23 23 24 24 25 26 27 27 28 28 28 27 26 26 26 25 25 25 25 25 26 24 23 25 25 26 26 26 27 27 27 27 26 25 24 24 25 28 29 29 29 27 27 28 27 27 28 27 27 27 27 27 27 27 27 27 27 27 27 27 27 27
12 12 13 14 15 15 16 17 17 18 18 19 19 19 19 19 20 21 20 20 21 21 21 22 21 22 23 23 24 24 24 25 26 27 27 27 27 26 26 26 25 25 24 25 25 25 24 23 24 25 25 25 26 26 27 27 27 27 26 24 23 24 26 27 29 30 29 27 28 29 27 27 28 27 27 27 27 27 27 27 27 27 27 27 27 27 27 27
12 13 13 14 15 16 17 18 18 18 18 18 18 18 19 20 21 21 21 20 21 21 21 22 22 22 23 24 25 25 24 25 26 27 27 27 26 26 26 26 25 25 24 24 24 23 22 23 25 26 25 25 26 26 26 26 26 26 25 24 23 25 25 25 28 30 30 28 29 29 27 27 27 27 27 28 28 28 28 28 28 27 27 27 27 27 27 27
12 13 13 14 15 16 17 18 18 18 18 18 18 19 20 20 21 21 21 20 20 21 21 22 23 23 24 25 26 26 25 25 26 27 27 27 26 26 26 26 25 25 24 24 24 23 23 25 26 26 25 26 26 26 26 25 25 25 26 24 23 26 26 25 28 30 30 29 29 28 25 24 26 26 26 27 28 28 28 28 27 27 27 27 27 27 27 27
13 13 13 14 14 16 18 18 18 19 19 19 20 20 20 20 21 21 20 19 20 21 22 22 23 24 25 26 26 26 26 26 26 27 27 27 27 26 26 26 25 25 25 24 24 24 25 26 26 26 25 25 25 26 26 25 24 24 26 26 26 27 27 27 28 28 26 25 28 27 22 22 25 26 26 27 27 28 28 28 27 27 27 27 27 27 27 27
13 13 13 13 14 16 18 18 18 18 19 20 20 20 21 21 21 21 20 19 20 22 23 23 23 24 25 25 26 26 25 26 26 26 27 27 27 26 26 25 25 25 25 25 24 24 25 26 26 26 26 25 25 25 26 26 24 22 26 28 28 28 27 27 27 26 23 23 27 28 24 21 23 24 26 27 27 27 27 27 27 27 27 27 27 27 27 27
13 13 13 13 14 14 17 18 18 18 19 20 20 20 21 21 21 21 20 19 20 22 23 23 23 24 25 25 25 25 24 25 26 26 27 27 27 27 26 25 25 25 26 25 23 24 26 26 26 26 26 25 25 24 26 27 24 23 27 29 28 28 27 28 27 25 25 25 27 28 26 22 22 24 27 27 26 27 27 27 27 27 27 27 27 27 27 27
13 13 12 13 14 13 15 16 16 17 20 20 20 20 21 21 21 20 20 20 21 23 23 24 24 24 24 24 25 26 25 25 26 26 27 27 26 27 26 26 26 26 27 25 23 24 27 27 26 26 25 25 25 25 27 27 25 26 28 29 29 29 29 29 28 25 26 25 23 25 25 23 22 24 27 27 26 26 27 27 27 27 27 27 27 27 27 27
14 14 13 14 15 15 15 15 15 18 20 20 20 20 21 21 21 20 20 20 22 23 24 24 24 24 25 25 25 26 26 26 26 26 26 27 26 26 26 26 26 26 26 25 24 25 27 27 28 27 25 25 26 27 27 27 27 28 29 29 29 29 29 29 28 26 25 23 22 23 24 23 22 23 25 26 25 25 27 27 27 28 28 28 27 27 27 27
15 15 14 14 15 16 15 15 17 19 20 19 20 20 21 21 21 20 19 20 22 23 23 24 24 24 25 25 25 25 25 26 26 26 26 25 25 25 25 25 25 26 25 25 25 26 27 27 28 27 27 27 28 28 27 27 28 28 29 29 28 28 28 28 27 25 23 22 22 24 24 24 22 22 24 25 26 27 28 28 28 28 28 28 28 28 28 27
17 16 16 16 16 16 16 17 19 20 19 19 20 20 21 21 20 19 19 21 22 22 23 24 24 24 24 25 25 25 25 25 26 26 25 24 23 23 24 24 24 25 24 24 25 26 27 27 27 27 27 27 27 28 28 28 28 28 29 28 26 25 25 25 24 24 22 21 23 24 25 24 22 23 25 27 28 29 28 28 28 28 28 28 28 28 28 28
18 18 18 18 18 18 18 19 20 20 19 19 19 20 21 20 19 19 20 21 21 21 22 23 24 24 24 25 25 25 25 25 25 25 24 22 22 22 22 21 21 22 22 22 23 24 26 26 26 26 27 26 26 27 27 27 27 27 27 26 23 22 22 22 22 22 22 22 23 25 25 23 23 26 28 28 29 29 29 29 29 28 28 28 28 28 28 28
19 19 20 20 20 19 20 20 20 20 20 19 19 20 21 20 19 19 20 21 21 22 23 23 23 24 24 24 24 24 24 23 24 23 23 22 21 21 21 21 21 21 21 21 22 22 24 25 25 26 26 25 25 25 25 25 26 27 26 24 22 21 21 21 21 21 22 22 23 25 25 23 23 27 28 28 28 30 30 30 30 29 29 29 28 28 28 28
20 20 21 21 21 21 21 21 20 20 19 18 19 21 20 19 19 20 20 20 21 23 23 22 23 23 24 24 23 24 23 22 22 22 21 21 21 20 20 21 21 21 21 21 21 21 21 23 24 25 25 25 24 24 24 25 26 27 27 26 23 22 22 21 21 21 22 22 23 24 24 23 22 24 26 27 28 28 29 29 30 30 29 29 29 28 28 28
21 21 21 21 21 21 22 21 21 20 18 18 20 20 18 18 18 19 20 20 21 22 22 22 22 22 23 23 22 23 23 22 21 21 20 20 19 19 20 20 20 20 20 21 21 21 21 22 23 24 24 24 23 24 25 25 25 26 27 26 24 23 23 22 21 22 22 22 22 23 23 24 24 25 26 26 26 27 27 27 28 29 29 29 29 28 28 28
22 22 22 22 22 22 22 21 21 20 19 20 20 18 18 18 18 19 20 20 21 21 22 22 21 20 21 21 21 22 23 22 22 21 20 19 19 18 19 20 20 19 20 20 21 20 20 21 23 24 24 24 23 23 25 24 24 25 25 24 24 25 25 23 21 22 22 22 22 22 22 24 25 26 26 26 25 26 26 26 26 26 28 29 29 28 28 28
22 21 21 22 22 22 22 22 22 21 20 20 19 18 19 19 18 19 19 20 21 21 21 20 20 20 20 20 20 21 22 22 21 20 19 19 19 18 18 20 20 20 19 20 21 20 20 21 22 22 24 24 23 24 25 24 24 24 23 23 24 25 25 24 22 21 22 21 22 22 21 21 22 23 25 25 25 25 25 25 25 25 25 27 29 29 28 29
21 20 20 21 22 22 22 22 21 21 20 20 19 19 19 19 19 19 19 20 21 20 20 19 19 20 19 19 19 19 21 21 20 20 19 18 19 18 18 18 20 20 19 20 21 20 20 21 21 21 22 23 23 24 24 24 24 24 23 24 24 23 23 23 22 21 21 21 22 21 21 21 21 22 23 24 24 24 24 24 24 24 24 25 27 29 28 28
19 20 21 21 21 21 22 22 21 21 20 19 19 19 19 19 19 19 19 20 20 20 19 19 19 20 19 19 19 19 19 19 19 19 18 18 18 19 18 18 19 20 19 20 19 19 19 20 21 21 21 22 23 22 21 22 23 23 23 23 22 22 22 22 22 22 21 21 21 21 21 21 22 23 24 24 24 23 23 23 23 23 23 23 24 27 29 28
17 20 21 21 21 21 22 22 21 21 20 19 18 19 19 19 19 19 19 20 20 19 19 19 19 19 19 19 19 19 18 18 18 18 17 17 17 19 18 18 18 19 19 19 18 18 19 20 20 21 21 21 22 21 20 20 21 21 20 20 20 21 22 22 22 22 21 21 21 21 21 20 23 25 25 24 24 23 23 23 22 22 22 22 22 24 28 29
15 20 21 21 21 22 22 21 20 20 19 18 19 19 19 19 19 19 19 19 20 20 19 19 18 18 18 19 18 18 18 17 17 17 17 16 17 18 18 17 18 18 19 19 18 18 19 18 19 20 20 21 21 21 21 21 20 20 19 19 19 20 21 21 21 21 21 21 21 21 20 21 24 25 24 24 24 23 23 22 22 22 22 22 22 22 25 28
17 20 20 21 22 22 21 20 19 19 18 18 18 18 19 19 19 18 19 19 19 19 19 18 18 17 17 18 18 18 17 17 17 17 17 17 16 17 17 18 18 19 18 18 18 19 18 18 18 19 19 19 20 20 20 20 20 20 19 19 20 20 20 20 20 21 21 21 21 21 20 21 24 25 24 24 23 22 22 22 22 22 21 21 21 21 22 24
19 19 20 21 22 22 20 18 18 18 18 18 19 18 19 18 18 18 18 18 18 18 18 17 17 17 17 17 17 17 17 16 16 17 17 17 17 17 17 18 19 19 18 18 18 19 19 17 18 19 18 18 19 20 19 19 19 19 19 19 19 20 19 19 20 20 20 20 20 21 20 21 24 24 23 23 23 22 22 22 21 21 21 21 21 21 21 21
16 17 19 21 21 21 20 18 17 17 18 18 18 18 18 18 17 17 17 17 17 17 17 17 17 17 17 17 17 17 17 16 16 16 17 17 17 18 18 18 19 19 18 18 18 19 18 17 17 19 19 19 19 20 20 18 18 18 18 19 19 19 19 20 20 20 20 19 19 20 20 21 23 23 22 22 21 21 21 21 21 21 21 21 20 20 20 20
16 17 18 19 20 19 18 17 17 17 17 17 17 17 18 18 17 17 16 16 17 17 17 17 17 17 17 17 17 16 17 17 16 16 17 16 17 18 18 18 19 19 19 19 19 18 18 16 17 18 18 19 18 18 18 17 16 17 18 18 19 19 19 20 19 20 20 19 19 20 20 20 22 22 21 20 20 20 20 20 21 20 20 20 20 20 19 19
18 17 17 18 18 17 17 17 17 17 17 17 17 17 16 17 17 17 17 17 16 17 17 16 17 17 17 16 16 16 16 16 16 16 16 16 17 17 18 18 18 19 19 19 19 18 17 16 16 16 16 17 16 16 16 16 16 17 17 17 18 19 19 19 19 19 19 19 19 20 19 20 21 20 19 19 19 19 19 19 19 20 20 20 20 20 19 19
17 16 15 16 17 17 17 17 17 17 17 16 17 16 16 16 16 17 17 17 16 17 17 16 16 17 16 16 16 15 15 16 16 16 15 16 16 17 18 18 18 18 19 18 18 18 17 16 16 16 15 16 16 16 16 16 16 16 16 17 18 18 19 19 19 19 19 19 20 19 19 19 19 19 19 18 18 18 18 18 18 19 19 19 19 19 19 19
16 16 15 15 16 17 16 16 16 16 17 17 16 16 16 16 16 16 17 17 17 17 17 16 16 16 16 16 16 15 15 15 15 15 15 16 16 17 17 17 17 17 18 18 17 17 16 15 15 16 15 15 16 16 16 16 16 16 16 17 17 17 18 18 18 19 19 19 19 19 19 19 18 18 19 18 17 17 17 17 17 18 18 18 18 18 18 18
15 15 15 15 16 16 16 16 16 16 16 16 16 16 16 15 16 16 16 17 17 17 16 16 16 16 16 16 16 15 15 15 15 15 16 16 15 16 16 17 17 17 17 17 17 16 16 16 16 16 15 15 15 16 16 16 16 16 16 16 17 17 18 18 18 19 19 19 19 20 20 18 17 17 18 18 17 17 17 16 16 16 17 17 17 17 17 17
14 15 15 16 16 17 16 17 16 16 16 16 16 16 16 16 16 16 16 16 16 16 17 16 16 16 16 17 17 16 16 16 15 15 16 16 15 16 16 16 16 17 17 17 16 16 16 16 16 16 15 15 15 15 15 15 15 15 15 16 16 17 17 18 18 19 19 20 19 19 19 19 17 17 18 18 17 17 16 16 15 15 16 16 16 16 16 16
13 13 13 15 16 16 16 16 16 15 16 15 15 16 16 16 16 16 17 17 16 17 17 17 16 16 16 16 16 16 16 16 16 16 16 16 16 16 16 16 16 16 16 16 16 16 16 15 15 15 15 15 15 15 15 15 15 15 16 16 17 17 17 17 17 18 18 19 19 19 19 18 16 16 17 17 17 16 15 15 15 15 15 15 15 15 16 16
13 12 12 14 16 15 15 15 15 15 15 15 16 16 16 16 16 16 16 17 17 17 17 17 17 16 16 16 16 17 17 17 17 17 17 17 17 16 16 15 15 15 15 16 15 15 16 15 15 14 14 14 14 15 15 15 15 16 16 16 17 17 17 17 17 17 16 17 18 18 17 16 15 15 16 16 16 16 15 15 15 15 15 15 15 15 15 15
Height
806 805 803 801 800 798 797 795 794 792 791 790 788 787 786 784 783 781 780 778 776 774 773 772 771 770 769 768 767 766 766 765 764 764 762 753 750 753 754 756 758 759 761 763 764 767 770 773 774 774 777 779 781 781 781 781 780 787 796 805 809 804 797 784 780 780 781 786 785 783 781 784 789 787 783 782 786 787 788 788 786 784 782 785 789 794 797 800
805 804 802 800 799 797 796 794 793 791 790 789 787 786 785 784 782 781 779 777 776 774 773 772 771 770 768 768 767 765 765 763 763 761 753 747 749 751 752 755 758 759 759 761 763 764 769 772 772 774 777 780 781 780 782 780 780 790 795 803 803 794 783 773 773 775 776 782 783 782 780 782 786 786 784 788 794 791 793 794 789 789 788 788 791 795 799 800
805 803 801 800 798 796 795 793 792 790 789 788 786 785 784 783 781 780 778 776 775 773 772 771 770 769 768 767 766 765 764 763 761 755 747 745 748 749 752 755 757 758 759 761 763 764 767 769 771 774 778 782 780 780 783 780 781 786 792 801 794 781 775 769 769 771 771 774 780 783 780 782 783 782 784 789 795 795 796 795 791 793 792 792 792 795 798 800
804 802 800 799 797 795 794 792 791 789 788 786 785 784 783 781 780 779 777 776 774 773 771 771 770 769 768 767 766 765 763 763 757 749 745 745 746 749 752 754 756 758 760 761 763 765 766 768 771 773 779 784 781 780 784 781 781 783 787 793 782 773 776 769 766 768 769 772 778 781 780 784 783 781 784 788 796 799 794 790 787 789 790 790 792 794 797 799
803 801 799 798 796 795 793 791 790 788 787 785 784 782 781 780 779 778 776 775 773 772 771 770 769 768 768 766 766 765 764 766 756 745 747 746 747 750 752 754 756 758 760 762 764 765 767 768 770 774 779 784 783 783 783 776 776 782 781 778 772 771 776 770 766 768 769 772 777 782 782 783 782 782 785 786 794 795 788 784 782 783 785 787 789 792 796 798
802 800 799 797 795 794 792 790 789 787 785 783 782 781 780 779 777 776 775 774 772 771 770 769 768 767 767 766 766 764 765 764 752 745 747 747 748 750 752 755 756 758 760 762 763 764 767 768 772 777 780 782 784 783 780 773 773 783 779 770 769 768 772 769 767 769 769 774 780 782 780 779 784 787 784 784 788 785 780 779 779 781 783 786 788 791 794 797
801 799 798 796 794 792 790 789 787 785 784 782 781 779 778 777 776 775 774 773 772 770 769 768 768 767 766 766 765 765 765 758 746 745 747 747 750 750 753 755 755 758 759 761 762 764 766 769 773 775 779 782 782 780 776 772 772 781 780 770 767 765 767 766 765 768 769 775 778 777 779 781 785 786 784 784 784 781 778 777 777 780 782 786 789 792 794 796
800 798 797 795 793 791 789 788 786 784 782 780 779 778 777 776 775 773 772 772 770 769 769 768 767 766 765 765 765 766 763 753 744 746 746 747 750 750 753 754 755 757 758 760 761 763 765 769 772 772 779 781 777 776 773 774 775 778 777 769 765 763 762 762 764 768 769 773 775 776 782 783 781 780 784 785 782 780 778 777 777 780 783 787 790 792 794 797
799 797 795 793 791 790 788 786 784 782 781 779 777 776 775 774 773 772 771 770 769 768 767 767 767 765 765 765 766 765 756 746 744 745 746 747 748 750 752 752 755 756 758 760 760 763 765 767 769 768 775 776 773 774 771 778 780 772 770 767 765 762 759 761 765 768 769 771 773 779 785 784 778 778 786 784 780 780 777 778 778 780 785 788 791 792 793 796
799 796 794 792 790 788 786 784 782 780 779 777 775 774 772 772 771 770 769 768 768 767 766 766 766 765 765 765 767 763 748 742 744 745 746 747 748 749 751 751 753 755 757 759 759 761 761 763 764 762 769 772 772 772 770 775 773 764 764 764 761 760 756 759 765 767 769 771 773 780 786 784 778 781 789 783 777 779 779 780 780 782 787 788 790 791 793 796
798 795 793 791 788 787 784 782 780 778 776 775 773 771 770 769 769 768 767 767 766 765 765 765 765 765 765 765 767 759 744 742 744 744 746 747 747 749 749 751 752 753 756 757 758 758 758 760 760 762 771 771 770 771 768 766 764 760 762 763 760 758 758 761 766 768 769 774 772 776 785 785 782 784 785 779 776 778 780 783 782 783 787 787 790 791 793 795
796 794 792 789 787 785 782 780 778 776 774 772 770 769 768 767 766 766 765 765 764 764 764 764 765 764 764 766 764 752 742 744 745 745 746 745 747 747 747 749 750 751 753 755 757 756 759 760 760 766 770 768 772 774 766 759 760 760 760 767 765 762 767 764 766 767 768 775 770 773 790 794 789 786 779 774 776 778 781 785 784 784 786 788 790 791 793 794
795 793 790 788 786 783 781 778 776 773 771 769 767 766 765 764 764 763 762 763 763 763 763 763 764 763 765 764 753 744 743 744 745 745 745 745 746 747 747 749 748 750 751 752 754 755 759 760 761 765 765 768 774 770 761 757 760 762 762 768 771 775 779 767 765 768 769 773 765 770 794 797 789 782 775 773 775 779 784 786 786 785 785 787 789 791 793 794
794 791 789 786 784 782 779 776 774 771 768 766 764 763 762 761 761 760 760 761 760 762 762 762 763 763 765 758 743 741 743 742 743 744 744 745 746 747 748 748 749 750 751 752 754 756 759 761 762 765 764 767 768 763 764 764 763 766 767 769 774 785 785 769 766 770 774 774 764 772 792 790 783 780 775 772 773 777 783 786 786 785 785 787 788 790 792 792
793 790 788 785 783 780 777 775 772 769 766 763 761 760 759 758 757 756 757 758 759 760 761 762 763 762 764 755 741 741 742 741 742 741 742 743 745 747 747 747 749 750 752 753 755 757 759 761 765 769 768 763 765 771 776 773 768 769 776 780 779 781 781 774 768 768 774 774 768 778 791 784 779 778 773 772 773 776 782 784 785 785 785 786 787 789 791 791
792 789 786 784 781 779 776 773 770 767 764 761 758 757 756 755 753 753 755 755 757 760 761 763 761 762 764 753 741 740 741 740 740 739 741 741 743 744 745 747 749 750 753 753 755 756 757 761 765 767 767 766 770 777 780 781 779 776 780 786 783 780 785 783 774 765 767 772 774 781 788 784 778 775 772 772 774 776 781 783 783 785 785 784 786 787 789 791
791 788 785 783 780 777 774 771 768 765 761 759 756 754 754 752 751 751 753 755 758 759 761 762 761 763 759 745 741 743 740 739 739 739 740 740 742 743 744 748 749 751 752 753 756 757 758 762 765 766 767 770 772 775 787 796 792 786 783 785 783 781 785 786 780 770 767 774 779 780 784 783 776 773 773 771 772 776 780 782 782 783 783 783 784 786 787 789
790 787 784 781 779 776 773 770 767 763 760 757 755 753 752 752 752 752 754 756 759 761 763 763 762 765 757 744 744 744 739 739 738 738 739 740 741 742 743 746 747 750 755 757 758 759 761 762 766 772 772 773 773 776 792 798 790 789 787 785 784 781 782 784 780 773 771 777 780 782 786 781 775 774 774 771 771 775 778 779 780 781 782 782 783 785 785 787
789 785 782 780 777 774 772 769 766 762 759 756 755 753 752 753 754 754 755 757 759 761 764 762 760 761 756 747 743 740 738 738 738 737 738 739 740 742 742 744 747 752 760 765 763 761 763 767 772 778 779 776 774 775 782 784 781 783 783 784 786 784 782 779 774 767 768 779 782 782 784 780 777 776 774 773 771 775 778 778 779 780 781 781 781 783 783 785
787 784 781 778 776 773 770 768 765 762 759 756 754 752 754 757 759 759 757 756 755 754 754 755 754 753 750 745 741 739 738 737 738 737 737 738 739 742 743 745 749 756 762 767 767 761 762 775 780 778 778 774 772 772 772 774 775 778 781 784 785 786 784 775 770 764 763 777 782 776 777 776 774 773 771 771 772 775 777 778 780 780 780 780 781 781 781 782
786 783 779 776 774 771 769 767 764 762 760 758 754 754 759 763 765 765 759 754 750 748 749 749 749 749 746 743 740 739 742 741 738 736 737 738 738 745 749 749 756 764 764 764 765 762 765 779 780 772 772 769 768 769 769 772 774 776 781 784 786 788 783 772 769 764 760 774 778 770 775 774 770 771 768 767 771 773 773 774 776 777 778 779 779 780 780 780
784 781 778 775 772 770 768 766 764 762 761 759 757 758 760 762 763 762 760 758 750 744 747 746 747 748 742 740 739 739 745 747 743 738 736 737 740 749 752 753 761 767 764 763 767 771 775 779 774 767 767 768 768 768 770 773 774 776 780 785 789 786 781 774 767 761 761 773 773 767 774 774 767 768 766 764 766 767 766 767 770 772 776 777 777 778 779 780
783 780 777 774 770 768 766 765 763 762 761 760 759 759 761 760 759 758 759 761 754 744 744 746 746 746 742 740 737 738 746 749 747 741 735 738 744 748 752 756 762 765 765 768 772 779 783 776 766 764 766 769 770 769 771 775 774 777 779 785 789 783 783 783 771 763 763 767 766 764 771 773 769 770 769 764 762 764 765 766 768 769 772 772 771 773 776 779
782 778 776 772 768 766 765 764 763 762 761 760 760 759 760 759 758 757 757 760 759 748 742 742 742 742 741 738 735 739 745 744 744 741 734 738 746 747 751 756 761 766 767 767 770 777 778 767 760 763 766 769 772 771 773 778 779 777 775 780 784 780 781 782 773 767 766 764 762 766 779 782 774 775 774 767 764 766 766 768 769 769 769 770 770 772 773 775
781 778 775 771 768 765 763 763 762 761 760 759 759 759 758 758 757 756 758 764 764 751 741 740 740 739 737 735 736 737 741 741 740 738 734 736 743 749 752 753 759 768 768 767 771 775 772 761 758 765 768 769 774 774 773 777 782 780 771 770 775 776 776 776 774 774 777 776 765 766 790 795 779 776 776 771 770 770 768 768 770 769 768 770 771 772 772 773
779 777 773 771 768 764 762 761 760 760 759 758 759 758 757 757 756 755 760 770 769 752 745 744 742 741 736 737 736 735 745 746 736 734 734 735 738 744 754 755 757 764 764 764 770 771 766 759 759 765 768 770 774 776 771 771 783 785 768 759 766 771 773 774 775 779 784 783 767 761 783 796 787 780 776 772 773 773 770 769 769 769 768 768 769 769 770 771
778 775 772 770 767 764 762 761 761 761 759 759 758 757 756 755 755 753 761 779 775 753 748 747 743 741 738 737 735 741 755 750 736 735 734 736 737 739 753 759 759 760 756 762 775 770 760 760 763 765 767 772 776 776 767 766 781 779 758 755 764 768 772 772 772 778 777 773 769 764 772 788 791 780 771 771 777 777 774 771 769 767 766 765 766 766 766 767
776 773 771 768 766 765 763 762 762 760 760 760 757 756 756 753 754 754 767 787 775 750 747 746 740 738 737 737 736 742 749 744 745 745 733 735 740 740 752 758 758 759 753 763 779 768 756 760 763 763 769 774 772 767 759 763 774 765 751 756 761 762 766 766 767 775 772 775 783 775 771 787 791 778 769 771 779 781 775 770 766 763 762 762 762 763 763 764
774 772 769 767 765 764 763 763 762 759 759 758 756 756 754 752 754 758 774 786 768 749 747 744 741 740 739 740 741 742 742 742 748 745 734 738 741 741 752 754 754 758 755 759 769 763 755 754 754 758 768 769 762 755 754 762 765 753 749 756 758 760 763 763 768 771 772 783 788 777 773 786 791 783 777 779 780 778 770 763 761 758 758 758 759 761 761 762
772 770 768 766 764 764 763 762 760 759 758 756 757 754 751 754 758 770 786 783 764 754 749 745 746 744 743 746 747 746 745 745 745 742 742 746 744 743 748 749 751 757 759 759 761 760 754 748 748 753 757 755 751 749 749 753 752 747 751 757 760 765 764 766 771 769 779 792 784 771 772 779 788 787 780 774 767 761 760 760 758 755 755 755 756 758 758 759
770 769 767 765 764 764 763 762 759 759 758 757 756 752 752 758 765 783 791 774 762 760 752 749 749 745 746 750 752 750 748 748 746 746 752 755 755 756 756 758 759 761 765 765 762 759 755 752 753 751 748 748 749 748 746 745 746 751 757 760 767 773 772 775 777 776 792 801 782 769 769 775 786 784 772 761 751 747 753 755 753 751 750 751 752 753 754 755
769 768 766 764 764 764 763 762 759 759 758 756 755 753 757 767 777 789 785 768 768 769 758 753 750 747 748 749 752 752 751 753 750 752 760 765 769 769 771 777 775 773 777 775 769 764 760 758 757 752 748 750 754 754 749 747 749 756 762 765 777 788 789 792 792 791 796 795 781 771 770 776 779 768 759 756 748 746 747 745 745 746 747 748 748 749 750 752
769 767 766 765 764 763 762 761 760 759 757 756 756 755 762 780 791 790 780 775 775 766 756 754 751 749 750 752 755 753 755 760 757 757 763 767 774 775 774 776 775 776 780 779 777 773 767 763 758 756 753 752 757 759 758 755 754 758 762 766 779 793 801 806 806 803 799 789 779 774 773 778 777 766 761 758 749 742 739 737 738 740 742 743 743 745 747 748
768 766 766 765 763 763 762 761 760 758 757 756 757 760 772 791 795 784 780 779 770 759 757 757 753 751 752 755 758 756 761 769 764 765 769 771 779 783 780 777 774 776 778 780 782 781 780 776 766 764 763 759 759 760 760 759 755 754 754 757 767 776 788 798 799 797 796 788 780 776 774 778 784 781 767 757 751 744 741 739 736 735 736 737 740 743 746 747
768 767 766 764 763 763 761 761 760 757 758 757 759 771 788 800 795 785 783 777 767 763 761 757 757 761 761 762 761 756 761 771 769 771 778 782 789 792 789 785 781 780 782 784 786 786 788 783 769 764 763 761 763 759 754 756 759 755 751 756 763 763 767 779 785 783 783 787 784 777 773 771 775 773 759 754 753 749 748 746 743 742 738 737 740 741 742 744
768 767 766 765 764 763 761 761 759 758 759 758 767 786 797 799 795 788 782 774 770 768 763 761 767 775 777 774 771 762 758 765 770 775 784 788 793 796 793 789 785 784 785 787 789 790 790 783 771 766 762 760 763 759 752 755 760 757 758 763 763 760 760 769 782 780 778 789 790 781 780 778 772 766 760 760 758 753 754 752 750 749 743 740 740 739 738 738
769 767 767 766 765 764 763 762 760 760 760 760 777 794 794 791 790 786 779 773 770 768 768 776 781 784 787 785 782 775 765 767 773 781 791 793 795 799 796 791 786 785 786 786 788 791 790 784 777 774 769 761 758 757 753 752 755 761 768 766 759 758 759 764 780 789 791 796 790 786 796 798 792 785 774 769 767 764 761 758 755 753 748 744 739 736 736 735
770 769 769 768 767 766 764 763 762 761 761 767 784 793 790 790 787 782 779 775 772 771 776 787 788 786 789 790 790 783 774 778 783 786 795 800 801 801 800 796 788 785 784 782 785 790 790 787 782 779 777 767 757 758 761 757 754 760 765 762 761 769 770 768 779 791 799 802 793 791 802 803 803 799 785 779 779 775 770 765 761 757 753 749 740 733 733 733
771 771 772 770 768 766 765 765 764 763 767 779 792 793 789 790 786 781 779 776 775 778 784 789 787 787 790 791 792 788 784 789 793 793 799 806 806 801 799 800 792 787 786 783 788 793 791 790 786 779 777 773 767 772 783 780 766 760 764 768 771 775 775 774 778 782 789 799 799 799 807 807 800 794 786 784 784 779 776 773 768 764 759 753 744 734 730 731
774 774 775 771 767 767 766 766 766 769 777 787 794 793 789 789 787 782 779 776 778 781 787 791 789 790 792 791 792 792 793 797 798 799 805 810 809 802 798 800 796 791 788 786 791 793 792 795 794 785 779 781 785 790 795 794 785 781 786 792 792 787 781 777 780 783 785 792 797 802 817 815 795 784 783 782 782 780 779 777 773 769 762 754 747 737 729 727
777 780 779 771 767 767 766 770 775 779 787 792 793 792 790 790 789 786 781 779 781 783 786 790 791 794 796 795 795 795 798 803 804 806 810 812 813 809 802 800 798 795 791 792 795 795 797 802 803 798 793 795 798 795 791 792 793 795 800 805 805 801 797 792 791 792 790 792 795 803 820 817 790 780 783 780 781 781 778 777 775 770 764 757 750 742 732 726
781 787 784 773 770 768 768 780 786 786 792 797 795 794 792 791 792 792 788 785 785 786 787 790 794 798 799 799 799 798 802 809 810 811 813 814 815 813 806 800 797 794 794 800 801 796 798 805 807 806 806 805 801 795 793 793 791 793 799 805 805 804 809 811 807 803 800 799 797 800 813 811 788 780 782 780 781 781 778 777 775 771 767 761 754 748 740 733
788 791 784 775 773 769 773 791 796 793 796 797 795 795 794 795 797 796 794 792 792 793 795 797 798 800 802 802 802 802 805 813 816 814 814 814 812 810 806 800 796 795 796 803 803 794 797 809 812 808 808 808 801 794 793 793 793 800 805 806 806 806 810 812 809 807 808 812 810 807 811 806 787 780 782 781 781 781 778 776 774 772 769 763 759 755 750 745
794 793 787 781 776 770 781 800 803 801 802 799 798 799 797 798 801 801 801 800 799 799 801 804 803 802 805 804 803 806 807 813 820 817 815 817 813 808 805 801 798 798 799 803 803 797 803 816 816 812 813 814 810 803 800 801 806 813 814 811 810 808 806 806 805 806 811 819 820 815 814 806 790 783 784 783 783 783 781 777 774 773 771 767 764 761 758 755
794 794 792 788 780 778 789 801 802 804 805 803 805 806 803 802 804 804 805 805 804 803 805 807 805 804 807 805 807 809 807 811 819 819 817 818 814 808 806 804 801 801 800 800 798 798 808 819 819 819 824 825 825 826 823 823 823 821 819 816 812 810 809 810 813 814 816 822 822 818 817 807 792 788 789 787 786 786 784 779 775 774 773 771 768 767 765 763
796 800 801 796 790 791 797 800 799 803 806 806 809 810 810 810 807 805 805 806 807 805 806 808 805 804 808 810 813 817 814 814 817 819 820 820 817 812 809 807 804 803 802 800 798 801 812 822 823 826 831 831 833 835 830 829 831 827 824 820 816 814 813 814 819 822 822 822 819 817 818 810 800 798 797 793 792 792 789 785 781 778 776 774 773 772 771 770
801 809 811 806 802 802 804 804 804 805 806 808 811 814 815 815 812 808 807 807 809 807 808 811 809 809 812 814 817 821 821 819 819 821 824 822 819 815 811 809 808 806 804 803 803 805 816 826 827 828 832 832 832 832 828 828 831 830 827 823 819 817 816 817 821 820 820 823 818 814 816 816 811 806 803 800 799 798 796 793 789 785 783 780 778 776 775 773
804 810 813 811 811 812 811 810 809 808 808 808 812 816 818 817 816 815 811 809 809 808 810 814 815 816 816 815 818 823 823 824 824 824 825 823 822 819 814 812 812 810 808 808 808 810 819 828 828 828 832 832 829 828 828 829 829 828 827 825 823 821 820 821 821 815 816 822 818 811 812 817 817 811 805 804 803 801 801 799 795 791 788 786 783 780 780 778
807 811 811 810 812 814 813 811 810 811 811 812 815 818 819 819 819 817 814 813 813 812 813 818 818 818 816 814 817 823 824 826 829 827 825 824 825 823 821 818 816 813 812 812 813 815 820 826 826 827 831 831 830 829 827 828 829 829 828 826 824 822 819 819 817 812 812 814 811 808 811 816 818 813 806 804 804 803 803 801 798 796 793 791 788 786 786 784
810 812 812 810 812 813 813 812 812 814 815 816 818 819 819 820 820 817 815 816 818 816 815 818 819 818 817 815 816 821 822 822 825 825 823 825 826 825 824 823 820 817 815 816 818 817 821 826 826 826 830 831 830 829 828 829 831 831 829 825 822 821 818 816 815 811 809 809 807 808 811 813 815 812 808 806 804 803 804 803 802 801 799 796 793 792 790 789
812 814 813 813 816 817 816 816 816 818 819 820 821 820 820 821 819 818 816 815 817 818 815 816 818 818 818 818 817 820 819 818 819 819 818 821 823 822 822 822 822 821 820 820 820 819 822 827 827 828 833 832 829 829 829 827 826 826 826 823 820 819 818 816 815 812 811 809 808 808 811 814 816 813 810 808 806 806 807 805 804 804 802 799 798 797 795 792
813 814 814 814 818 821 820 820 820 822 823 822 821 820 821 821 818 818 819 816 814 814 815 815 816 818 820 821 819 817 815 814 815 815 815 816 817 818 820 821 821 823 823 822 823 823 824 827 830 834 837 835 831 829 827 825 824 823 823 822 820 819 818 816 815 815 815 814 813 813 815 818 818 815 813 812 810 810 809 807 806 806 804 802 802 801 798 794
Wind_Speed
20 21 22 22 22 22 22 22 22 22 21 19 17 16 16 16 16 17 19 21 20 17 16 13 9 9 8 8 8 9 10 10 11 8 9 12 12 9 11 16 16 17 18 17 18 16 10 7 8 9 7 5 2 1 4 5 3 2 1 2 2 3 3 3 3 3 5 5 8 8 6 6 7 4 2 2 3 4 4 4 2 1 7 13 19 25 28 28
21 21 22 22 22 22 23 22 22 22 21 20 18 17 17 16 16 16 17 20 20 17 15 12 9 8 7 7 7 9 11 12 11 10 13 11 7 12 17 18 18 19 19 18 20 18 11 7 8 8 5 3 3 3 4 5 5 4 2 2 3 4 4 3 4 7 6 7 8 8 6 6 8 6 4 4 5 3 4 3 1 7 13 16 22 27 27 27
21 22 22 23 23 23 23 22 23 23 22 21 19 18 18 17 16 16 17 18 19 16 13 10 8 7 7 8 9 10 11 9 7 7 7 4 12 19 21 21 19 19 19 18 19 17 13 12 12 8 5 2 3 4 4 4 4 5 3 2 5 5 4 3 5 7 7 10 10 8 6 6 6 5 3 6 7 4 5 5 6 12 15 16 19 22 27 26
21 22 22 23 23 23 23 23 23 23 23 22 20 19 19 18 17 16 17 17 17 15 12 9 8 8 8 9 9 10 9 5 2 4 4 1 16 23 23 21 17 18 18 14 14 14 11 10 11 7 4 3 2 3 4 4 4 3 5 5 5 4 3 4 4 7 8 11 9 7 7 8 6 4 3 8 9 4 6 6 8 14 17 19 19 20 24 23
21 22 23 23 23 23 23 23 24 24 24 23 22 20 20 19 17 17 17 16 15 13 11 9 9 11 10 9 9 8 5 2 2 4 1 3 16 24 24 20 15 15 16 12 10 12 9 5 7 6 3 2 3 3 5 7 5 3 6 8 6 3 3 2 3 8 10 9 8 7 8 9 6 4 5 9 8 4 6 7 7 13 18 20 20 20 21 20
21 22 22 23 24 24 24 24 25 25 25 24 23 22 21 19 18 17 16 14 14 12 10 8 9 12 10 8 7 5 1 1 4 3 4 5 14 21 22 18 14 14 15 13 10 10 7 4 4 6 4 2 4 5 5 6 6 5 5 6 7 5 4 2 4 7 10 10 9 7 6 8 7 5 6 7 5 1 4 6 7 13 18 21 21 19 18 18
22 22 22 23 24 25 25 25 26 26 26 25 24 23 21 20 18 17 17 14 12 11 9 8 9 10 9 5 4 2 2 4 5 5 6 6 12 17 18 17 15 15 14 12 10 8 6 5 5 4 4 3 4 6 6 4 6 6 6 6 7 6 5 6 7 7 9 10 8 8 7 8 10 8 6 5 3 2 2 3 8 15 19 21 19 17 16 17
23 23 23 24 24 26 26 27 27 27 27 27 26 25 23 20 18 18 17 14 11 10 8 7 8 8 7 3 1 2 1 5 5 9 8 8 13 16 17 16 15 16 15 13 11 8 6 7 7 4 4 5 4 4 5 4 5 7 8 8 6 7 6 8 9 8 8 8 8 10 9 7 8 8 8 6 4 3 1 3 11 17 18 17 17 17 15 15
24 24 24 25 26 27 27 28 28 28 28 28 28 27 24 21 19 18 16 13 11 9 7 5 6 6 4 1 1 1 3 4 6 10 10 11 15 18 20 17 17 18 14 15 13 10 8 7 7 5 3 4 4 4 3 3 4 6 8 8 7 8 7 10 10 10 8 6 9 11 9 4 5 7 6 5 5 5 4 8 15 17 17 16 16 16 14 15
25 25 25 26 28 28 28 29 29 30 29 29 29 27 25 21 19 18 16 13 10 8 5 3 4 3 1 1 2 1 3 2 6 12 11 12 16 20 22 19 20 21 14 12 14 12 9 7 7 4 1 2 3 4 5 5 4 4 5 7 9 10 7 12 12 11 8 6 9 10 7 5 5 5 4 5 7 8 9 12 15 17 17 16 15 13 13 15
26 26 26 27 28 29 29 30 30 30 30 30 30 28 26 22 20 18 15 12 9 6 3 2 1 0 2 2 3 3 4 3 7 12 11 13 17 19 22 21 21 23 17 10 14 18 12 7 5 2 1 2 3 4 5 5 3 5 5 6 8 5 4 11 12 11 8 5 8 8 7 4 3 3 4 8 10 11 13 14 14 16 16 15 16 13 12 13
27 26 27 28 29 29 30 30 31 31 30 31 30 28 26 22 20 18 13 10 8 4 3 2 1 3 2 2 4 7 5 4 3 8 11 12 13 13 15 18 21 24 22 12 13 22 18 8 3 2 2 0 3 3 4 5 4 6 4 4 6 2 6 9 10 11 8 5 9 10 6 1 5 4 4 11 12 12 13 13 14 14 15 15 15 12 10 13
27 27 27 28 29 30 30 31 31 31 30 30 29 29 26 22 20 17 12 9 6 3 5 4 2 4 3 0 8 8 3 2 3 4 12 13 11 11 12 14 17 22 24 19 16 23 20 11 4 3 2 2 3 3 5 6 4 4 2 1 2 4 4 8 8 10 7 6 13 11 3 4 9 6 5 12 14 13 12 14 14 12 13 14 13 11 11 14
27 28 28 29 29 30 31 32 32 32 30 29 29 28 24 22 20 16 11 8 5 5 8 6 4 4 3 4 8 5 4 5 5 6 13 17 13 9 13 14 15 20 23 21 15 15 18 13 5 3 3 2 4 4 6 5 2 2 3 1 1 3 4 6 7 10 6 5 13 7 1 6 9 8 8 12 15 13 13 16 15 12 12 13 13 12 11 14
27 28 29 30 30 31 33 33 33 32 29 28 28 26 23 21 19 14 10 6 6 9 10 7 6 4 1 6 8 3 3 4 6 11 12 19 16 8 12 18 17 20 21 18 11 8 15 13 4 3 4 4 4 4 5 3 3 2 1 3 2 2 3 4 6 11 8 6 11 5 1 4 6 9 9 12 14 12 14 17 17 14 13 14 12 13 12 13
28 29 29 30 31 33 34 34 34 31 29 28 26 23 21 19 15 9 6 6 8 11 10 6 7 6 1 4 5 2 3 4 7 12 10 15 18 11 13 17 14 16 16 15 12 8 13 11 3 3 4 4 3 2 2 3 4 3 1 2 3 2 1 2 4 9 8 8 10 8 3 1 2 8 9 12 14 12 14 17 18 16 14 15 12 12 13 12
28 30 30 31 33 34 35 35 33 31 29 25 23 21 16 12 6 2 6 9 11 12 7 3 6 5 2 5 4 3 3 5 7 10 10 13 16 12 10 10 6 11 10 9 10 7 7 6 2 3 3 3 3 3 1 2 3 3 2 1 3 1 3 2 3 6 5 7 11 11 6 3 2 7 11 14 15 12 14 16 17 17 15 14 12 12 13 13
29 31 31 33 34 35 35 35 33 31 26 22 21 17 9 8 7 11 16 15 11 8 2 1 2 2 3 5 3 5 8 6 7 8 11 12 14 11 11 7 4 8 4 1 5 4 2 2 1 1 2 3 3 4 3 4 4 2 1 1 2 2 2 3 2 5 7 6 9 11 10 8 3 6 11 13 15 14 14 15 15 16 16 15 13 12 13 14
30 32 32 33 34 35 35 33 32 28 22 20 18 8 8 11 9 11 15 14 7 2 0 1 3 1 2 4 5 9 12 6 5 6 10 9 9 10 8 6 5 7 4 1 2 4 3 1 1 3 3 4 4 5 6 5 5 5 4 3 2 3 2 4 3 5 12 9 8 11 12 11 6 8 11 12 13 13 12 13 13 14 15 14 13 12 13 15
32 32 32 32 34 34 33 32 30 22 18 22 19 6 6 7 4 3 3 5 3 4 3 4 6 2 4 4 6 9 12 6 4 4 8 9 8 7 2 3 5 4 4 4 2 2 4 3 4 6 5 5 5 5 6 5 4 3 2 1 3 3 4 4 3 4 11 9 9 12 12 12 10 11 13 13 13 13 13 14 13 14 14 14 14 13 14 15
32 32 33 32 33 33 31 31 26 17 16 21 17 6 2 2 2 4 4 3 5 7 7 6 8 6 8 8 8 7 6 3 3 2 5 7 7 7 1 1 5 2 3 4 2 1 3 5 6 6 6 6 5 5 5 4 4 3 2 3 4 3 5 6 3 4 8 7 8 11 11 12 11 11 13 14 15 15 16 17 16 16 15 13 14 15 14 12
32 32 33 31 32 31 29 28 20 12 16 17 12 4 1 4 7 8 4 4 7 6 8 7 6 7 10 13 16 9 1 2 4 4 4 6 5 5 1 2 6 3 3 3 3 2 3 5 6 6 5 4 4 3 4 4 5 4 3 2 3 3 2 5 6 5 7 6 6 9 11 10 8 9 12 16 17 15 16 18 17 17 16 14 15 15 13 12
31 32 32 31 31 29 28 25 13 10 16 13 7 4 6 13 16 10 3 3 7 4 5 5 5 6 6 9 12 6 3 4 3 4 4 7 3 4 4 4 5 3 3 4 4 4 4 5 7 7 4 3 5 5 3 3 4 4 4 3 3 2 1 3 5 2 3 5 6 5 5 3 3 6 9 12 13 10 11 14 13 14 15 16 16 15 14 15
32 32 31 31 29 27 27 19 7 11 17 8 3 8 14 18 18 12 3 1 4 4 4 5 4 4 4 4 4 6 3 3 3 3 4 8 3 3 4 4 5 4 3 6 6 5 5 7 6 5 4 5 5 6 3 3 4 4 6 6 4 3 4 6 4 4 2 5 4 2 2 2 4 8 8 8 9 8 9 11 12 12 13 13 13 13 13 14
32 32 31 30 27 26 24 10 4 14 15 3 2 13 18 17 18 12 3 2 3 5 3 3 1 2 3 2 3 4 2 1 3 3 5 9 6 3 2 2 4 3 5 6 7 4 7 7 3 4 6 5 4 6 4 5 3 5 7 8 7 5 7 8 4 3 4 5 3 3 3 4 3 8 8 6 8 9 9 11 13 12 12 12 12 13 13 13
32 31 30 27 25 26 17 3 7 17 10 2 8 17 17 16 18 9 1 3 2 4 1 0 0 1 2 1 1 2 4 2 4 3 4 8 6 4 2 1 1 3 6 4 4 3 5 5 5 6 7 6 6 6 5 6 3 5 6 7 8 8 8 8 5 1 1 4 4 1 4 2 3 5 7 7 10 11 9 11 13 11 12 13 12 13 13 13
32 30 28 25 22 21 11 2 10 13 2 4 13 17 16 17 15 5 3 4 2 3 1 1 1 1 1 1 2 4 2 4 2 1 2 5 3 4 3 2 1 2 2 3 2 3 3 4 5 6 6 6 6 6 7 7 5 6 4 6 7 8 8 8 6 4 4 3 2 3 4 2 3 5 8 8 9 9 9 11 12 12 13 14 13 14 14 15
31 27 25 23 18 14 7 6 11 6 1 9 15 17 18 17 9 3 4 2 1 2 0 1 2 1 1 1 2 4 3 3 2 1 1 4 3 4 3 3 5 4 1 5 3 5 2 4 7 7 6 5 6 9 9 8 6 10 5 6 6 7 7 6 5 4 2 2 1 4 2 3 4 3 6 8 9 10 13 14 14 15 16 15 15 15 15 15
28 24 23 22 15 7 4 6 7 4 7 14 16 19 19 11 4 4 3 2 1 2 0 1 2 1 1 2 2 2 0 1 2 2 1 5 6 5 2 4 5 4 1 4 4 5 2 4 7 7 6 6 8 12 9 9 9 9 4 4 3 3 2 2 4 4 1 2 5 7 2 3 5 3 5 7 8 12 15 15 14 15 16 16 14 14 14 13
24 22 22 20 11 3 4 8 7 5 12 15 18 21 13 3 4 4 3 2 2 2 1 2 2 1 2 3 2 2 2 1 0 2 3 5 9 7 1 0 4 3 0 1 2 4 4 4 3 4 4 7 10 11 9 14 14 6 1 3 2 2 3 2 2 3 3 1 6 6 3 4 3 4 4 7 11 15 14 12 12 14 16 16 14 13 14 13
22 21 19 15 9 4 4 6 6 9 12 15 20 17 6 3 3 4 2 1 2 3 3 2 2 1 2 4 1 1 1 1 2 4 4 5 8 8 6 4 4 3 3 3 2 3 6 4 0 2 1 1 3 6 5 11 12 4 2 2 2 1 2 3 3 3 4 3 6 7 3 4 1 5 5 9 13 14 13 13 15 18 17 15 14 14 14 14
21 19 14 11 9 7 5 4 8 12 14 17 18 9 4 3 4 3 2 3 2 3 4 3 2 1 1 3 2 1 2 2 4 6 5 3 6 6 5 4 1 2 2 2 2 2 3 1 3 4 3 7 4 3 3 1 5 4 2 3 3 1 1 1 2 1 3 3 5 6 2 2 3 5 6 11 13 11 12 13 14 15 15 14 14 14 13 12
19 16 12 10 11 11 10 10 12 14 16 16 10 4 5 4 4 3 4 3 2 4 4 4 4 1 2 3 3 3 5 4 4 5 4 4 5 4 5 7 5 3 3 1 1 2 1 2 6 6 4 7 5 1 1 1 4 6 5 4 4 2 2 3 3 1 2 3 3 5 3 1 3 4 5 6 11 12 13 14 14 13 13 14 15 14 13 13
17 14 12 11 11 12 10 10 11 12 14 12 4 5 7 5 1 4 3 2 3 4 4 4 4 4 4 4 2 2 5 6 5 6 5 4 5 4 5 10 11 4 2 2 2 2 2 2 4 5 2 5 4 1 3 3 3 4 5 5 5 5 5 4 4 3 3 2 2 2 2 2 2 2 8 8 7 6 5 8 9 11 12 12 12 12 13 13
15 12 10 10 9 7 5 6 9 10 9 6 5 6 7 3 3 3 3 4 3 3 5 4 6 7 5 5 5 3 4 3 4 8 8 5 5 5 5 7 10 6 2 3 1 1 3 2 4 2 3 3 6 5 3 3 2 2 2 6 3 3 4 3 3 5 4 2 1 1 2 2 4 1 9 12 12 12 11 11 9 7 9 9 10 12 14 13
12 9 8 9 8 5 4 5 7 8 5 5 7 7 4 2 3 3 3 4 3 5 6 5 8 7 5 5 6 7 4 3 2 4 5 5 5 7 6 4 7 8 4 2 1 2 2 2 5 5 4 5 7 6 2 4 2 2 3 2 2 2 4 4 1 1 4 4 1 1 0 4 2 3 12 15 15 16 16 15 14 12 9 7 11 12 13 15
13 10 7 12 11 5 4 6 7 7 5 6 8 5 2 1 3 4 4 4 4 5 4 5 6 5 3 3 5 8 6 3 4 4 3 3 4 7 7 4 5 8 6 2 2 1 2 2 4 6 4 7 8 5 2 8 4 2 2 3 4 1 3 3 1 2 5 3 2 1 4 4 4 2 8 15 17 18 18 17 15 15 12 6 10 12 13 15
14 9 5 16 19 8 3 6 8 6 4 6 8 5 1 3 4 5 5 4 3 5 6 4 3 3 2 2 4 8 7 3 4 4 3 3 3 5 7 4 5 8 8 4 2 1 2 1 4 5 2 7 8 5 3 9 9 3 2 3 3 3 2 1 2 2 2 2 2 2 3 3 4 3 7 13 14 15 16 16 16 17 17 12 9 12 14 14
12 5 2 19 24 10 3 6 7 6 6 5 5 3 1 2 5 7 6 5 4 5 5 3 2 3 3 2 2 7 9 6 4 3 3 3 1 3 7 5 5 8 8 6 4 1 2 2 3 4 5 5 6 6 4 7 9 5 3 5 4 2 2 1 2 3 3 3 3 1 3 2 2 5 7 9 10 12 14 14 14 16 17 16 12 8 13 14
8 3 2 23 25 5 2 5 6 6 5 4 3 1 2 2 4 9 10 8 5 4 4 3 3 3 4 5 4 4 7 7 5 4 3 4 1 3 8 6 6 7 6 5 6 2 2 3 1 5 6 4 2 4 4 4 5 6 7 7 6 4 2 2 1 1 3 3 3 3 3 2 4 5 7 8 9 10 11 12 12 14 16 17 18 13 7 14
5 3 5 28 24 4 1 5 6 5 3 3 3 2 4 4 4 9 11 9 6 4 4 4 5 4 3 5 5 4 4 5 6 5 3 5 4 3 7 6 6 6 4 5 6 4 2 2 1 3 5 4 1 4 5 5 6 7 6 5 5 5 4 2 2 2 2 3 2 4 4 3 4 4 6 6 7 7 9 11 10 13 17 18 19 19 11 7
5 3 9 28 21 11 9 6 3 3 4 3 3 3 5 5 4 8 9 8 7 5 5 5 6 6 4 4 4 4 4 4 5 4 3 4 5 3 7 9 7 4 2 3 3 2 1 2 2 2 2 1 2 3 7 7 6 8 8 6 4 5 5 2 1 3 4 3 1 3 4 4 4 3 5 5 5 6 8 10 10 12 15 17 19 21 19 10
3 1 12 27 19 12 11 6 3 5 4 2 3 4 5 4 5 7 8 8 6 4 5 6 5 5 6 5 4 4 4 4 5 5 3 3 5 4 8 9 8 5 3 3 3 2 2 3 3 3 3 4 3 1 6 9 7 6 6 7 6 5 4 1 3 0 2 4 4 2 3 3 4 4 5 5 5 6 8 9 11 11 12 16 19 20 20 18
1 3 7 23 24 16 9 3 2 5 4 3 5 5 5 4 6 8 8 8 6 3 4 5 5 4 4 5 5 5 3 3 4 5 3 3 4 6 9 10 9 6 4 4 4 2 2 2 3 3 3 4 4 4 5 8 8 4 4 6 6 8 9 4 1 2 3 3 3 1 3 3 5 4 6 7 8 8 10 10 10 11 12 13 16 17 18 18
2 0 3 14 24 17 6 2 3 5 4 5 7 6 5 4 6 7 7 6 6 4 3 2 2 2 4 6 7 8 7 5 3 3 3 3 4 5 8 9 8 6 7 9 7 2 2 3 3 4 3 2 1 1 3 4 5 3 4 6 6 8 10 5 3 3 2 2 3 2 2 5 7 6 9 11 11 11 12 12 11 11 12 12 13 15 15 16
3 3 2 7 11 8 3 2 3 4 3 4 6 6 5 4 4 6 6 5 5 5 5 2 3 2 5 7 6 7 9 7 4 2 3 4 3 3 6 7 7 8 10 14 11 3 3 4 3 6 5 3 4 2 3 3 3 3 5 7 6 6 6 4 3 2 0 3 3 2 1 6 9 10 12 12 13 13 13 14 13 12 13 13 12 13 14 14
3 2 2 2 4 4 4 5 4 4 3 3 3 4 5 5 4 5 5 3 3 4 4 4 6 5 5 5 5 4 5 5 5 4 2 3 2 3 6 5 6 10 11 10 8 3 4 4 4 6 4 3 4 4 4 2 1 2 5 6 5 6 5 4 2 1 1 3 3 4 1 5 8 10 12 11 11 11 12 13 13 12 12 12 12 14 16 15
3 1 0 0 1 2 2 3 4 6 6 4 3 2 4 6 5 3 3 3 4 4 3 4 7 6 4 3 4 3 3 4 5 3 2 3 3 4 6 5 5 9 8 6 5 4 5 1 1 4 3 1 2 3 3 2 1 2 3 3 5 6 5 2 3 4 2 2 4 6 4 4 5 9 11 10 9 10 10 10 10 11 12 12 13 16 17 17
2 2 2 1 2 1 1 2 4 7 7 5 4 3 3 5 5 3 2 2 4 5 3 4 5 6 5 4 5 4 3 3 3 3 1 2 3 3 4 4 4 6 6 4 4 3 4 0 0 3 3 1 2 3 3 4 3 3 2 3 3 4 5 5 5 6 5 6 7 7 4 1 3 7 8 7 7 7 7 7 10 13 14 14 15 15 16 16
2 2 2 2 3 2 3 4 4 6 5 4 3 3 3 4 4 3 2 3 2 4 3 4 4 4 4 4 5 4 3 6 4 1 2 2 3 1 1 1 2 5 5 3 3 3 3 2 2 4 3 3 3 2 4 4 4 4 4 5 5 5 6 5 5 6 5 6 5 3 2 2 2 6 7 6 5 6 8 9 10 12 13 14 15 14 14 15
3 2 2 3 3 4 4 3 3 4 4 4 3 2 3 3 3 2 2 1 3 1 0 1 2 3 3 5 6 2 3 6 6 3 5 4 1 2 1 1 1 2 4 2 2 3 3 1 2 5 4 4 4 5 7 6 4 3 2 2 2 2 2 2 2 2 2 4 4 1 1 1 3 6 6 6 7 8 9 10 9 9 10 13 14 13 13 14
4 1 2 4 2 4 3 2 3 4 2 2 2 2 2 3 4 2 2 3 1 1 3 3 2 3 4 4 3 2 4 4 3 2 4 4 2 2 2 2 4 3 1 1 2 1 2 2 1 3 2 4 5 6 8 8 5 2 1 1 2 2 0 1 2 3 2 1 2 1 1 0 3 5 6 7 8 7 7 8 8 8 9 10 11 11 12 12
Wind_Direction
353 352 354 356 357 357 357 358 359 359 358 356 355 356 356 356 355 353 349 346 345 340 339 345 347 334 325 326 322 310 310 306 300 267 239 266 262 227 194 181 168 152 151 163 165 154 148 168 191 183 163 161 183 188 174 201 223 214 198 187 244 237 225 232 201 157 142 156 167 180 193 147 144 152 134 132 71 62 67 46 4 63 107 118 128 140 146 148
351 351 352 353 354 354 354 355 355 355 355 354 354 352 352 355 354 353 349 345 343 339 339 345 354 345 335 338 324 315 317 310 295 259 251 268 233 184 176 172 166 157 151 156 162 155 150 173 186 177 159 156 185 168 162 182 194 211 216 186 233 220 221 238 153 141 149 158 165 178 189 157 146 145 157 157 132 122 103 88 148 115 111 120 133 144 149 149
349 350 350 350 350 351 351 351 352 350 350 351 352 350 349 350 351 351 349 345 342 340 337 341 354 347 342 335 323 323 320 315 295 261 280 258 184 170 166 170 170 167 162 162 169 165 161 174 175 164 157 187 190 169 174 177 181 203 212 229 243 220 249 272 156 152 157 152 155 167 165 147 141 136 164 155 139 155 152 157 160 135 131 136 143 149 153 152
347 349 348 347 347 349 349 349 349 347 347 347 348 348 347 347 348 348 347 345 343 342 337 334 337 332 334 322 319 328 320 326 284 256 347 143 167 162 164 169 171 179 180 173 174 173 164 163 167 166 165 197 212 184 202 205 189 187 195 223 245 203 239 264 168 140 142 146 149 157 144 136 138 137 163 149 142 176 184 180 165 148 146 147 150 155 157 156
344 345 346 346 345 346 347 346 346 345 344 344 345 345 344 346 345 344 347 346 342 343 337 324 323 325 324 314 314 324 331 27 258 244 16 142 161 162 168 167 163 173 182 181 172 169 167 145 153 174 179 194 196 187 219 214 212 243 222 233 257 248 259 269 147 134 138 138 137 151 149 138 134 150 174 162 160 186 179 183 170 152 152 152 154 158 158 157
343 343 344 344 344 345 345 345 344 344 343 342 342 341 342 343 341 342 345 345 343 342 338 318 316 326 322 315 312 317 29 152 271 223 176 164 165 168 169 168 163 164 176 181 165 158 162 132 143 176 174 189 203 208 232 205 199 248 257 247 251 246 244 200 149 147 144 142 149 156 143 130 135 160 181 171 166 173 155 171 164 151 153 153 155 160 159 160
342 341 341 341 343 344 345 344 343 342 341 340 339 338 339 339 339 339 340 343 340 338 340 319 315 325 323 322 316 360 99 256 256 181 184 177 171 175 170 170 172 173 182 180 163 157 157 151 163 168 160 192 214 220 242 223 202 227 258 265 255 242 220 179 163 162 154 149 151 142 134 147 154 158 175 173 154 136 138 177 157 148 152 153 158 164 161 161
341 340 339 339 340 343 344 343 342 341 339 338 337 335 335 336 336 336 337 339 334 331 332 317 318 324 320 320 329 16 320 253 209 172 189 179 174 178 171 172 180 183 188 191 180 165 160 165 177 166 168 212 226 228 231 238 234 226 244 264 263 252 218 173 161 161 155 141 137 140 148 173 167 147 160 174 150 137 174 190 155 147 152 157 164 168 161 162
340 339 338 338 339 343 343 341 340 338 337 336 334 333 332 333 333 333 333 333 331 324 315 312 318 323 321 287 96 348 244 223 181 180 188 177 176 182 182 182 188 189 190 200 192 172 173 181 188 176 171 222 248 275 237 216 239 224 238 258 259 261 220 166 159 161 156 143 145 148 148 173 168 134 144 173 149 139 159 163 153 151 158 161 168 171 163 164
339 338 337 338 339 342 342 340 337 336 335 334 331 329 329 330 331 331 329 328 329 318 300 298 315 329 348 167 97 125 207 188 180 187 186 179 175 181 190 192 192 191 189 196 192 187 188 182 188 177 119 256 247 264 244 214 237 238 250 266 259 263 219 160 156 159 147 146 155 148 139 151 173 153 163 179 153 146 149 154 154 156 163 165 170 173 167 168
338 337 337 338 340 341 341 339 336 334 333 332 329 327 327 328 328 327 325 323 323 313 274 243 326 40 150 118 113 196 202 149 175 186 187 183 176 180 192 198 196 191 187 186 195 201 201 181 173 169 175 257 276 280 259 232 273 285 278 297 284 267 168 147 150 157 145 147 159 133 110 123 198 248 201 164 153 154 152 156 163 163 165 169 173 173 170 172
336 336 336 338 340 340 340 338 335 333 331 329 327 325 325 326 326 324 320 317 315 299 224 206 114 171 153 84 216 217 171 108 158 195 200 195 186 189 195 200 201 197 189 181 201 207 205 196 176 223 216 352 310 288 278 270 302 295 271 300 308 43 135 159 151 160 158 146 153 127 89 149 217 241 182 154 156 161 157 163 172 168 167 171 175 174 173 175
335 337 338 339 340 339 339 338 336 334 329 326 324 323 324 323 324 320 312 307 297 248 197 181 160 177 140 258 241 224 203 322 317 229 212 210 204 203 204 204 207 205 197 189 201 207 204 207 213 255 292 10 298 263 295 298 301 288 268 259 314 64 154 188 150 157 160 147 162 147 99 229 217 215 170 155 164 166 161 170 178 173 170 173 178 176 175 178
335 338 340 340 340 339 339 339 338 335 330 325 321 322 323 323 322 313 302 290 265 201 184 173 163 164 147 255 264 261 277 294 280 231 212 211 208 204 205 205 205 204 202 199 203 204 200 209 232 287 298 255 258 297 318 316 333 293 295 329 106 114 201 205 153 158 147 154 178 165 73 221 214 207 181 163 171 171 164 172 180 179 174 174 179 178 178 181
335 338 341 340 340 340 341 341 339 337 332 326 321 321 324 324 317 302 288 263 224 184 175 167 171 160 66 276 282 294 265 285 236 211 209 210 203 198 201 201 203 201 204 205 201 194 190 197 225 269 271 241 236 304 321 324 352 360 308 314 342 114 207 209 173 174 156 158 193 201 289 237 214 192 181 169 174 174 166 172 180 182 179 177 179 179 179 181
334 338 339 339 341 341 342 342 341 339 333 327 323 325 329 327 315 293 258 205 179 170 165 159 182 173 63 280 293 324 231 244 216 198 203 211 203 203 196 191 197 199 205 211 209 206 183 180 197 211 240 257 215 215 341 349 333 355 91 255 298 65 145 201 201 201 173 149 191 222 239 281 220 179 171 171 179 177 168 174 180 183 184 181 178 179 179 179
334 337 339 340 341 341 342 342 342 340 333 330 330 331 337 340 334 129 140 147 147 153 148 130 173 176 267 280 302 332 250 229 223 213 214 216 210 202 169 162 179 188 202 216 214 222 184 176 206 208 235 251 193 140 73 299 271 320 27 228 265 180 153 179 209 214 192 154 188 219 232 252 247 173 171 176 180 179 175 177 180 182 186 186 180 180 181 179
333 337 341 342 341 341 342 343 344 340 334 336 342 340 4 50 86 113 117 119 122 130 111 41 153 152 257 281 302 302 296 252 222 220 214 217 217 194 156 154 157 154 165 224 197 197 180 190 216 241 281 224 180 138 174 225 193 174 111 104 295 290 150 169 208 194 189 197 198 206 226 244 255 162 177 182 181 183 183 181 181 182 186 187 183 183 184 183
334 338 342 341 341 341 341 343 345 341 338 349 358 16 72 73 92 110 118 123 117 130 236 217 182 148 220 266 284 292 306 276 206 202 196 196 198 184 159 155 131 122 133 137 189 183 170 145 177 218 238 211 196 168 184 199 160 157 170 155 231 289 290 198 231 199 183 202 215 204 217 228 211 174 182 186 184 187 186 183 184 185 187 189 186 186 186 187
335 340 342 340 340 340 340 343 345 343 349 356 3 51 85 47 59 66 120 157 194 222 231 200 189 249 288 276 284 297 314 296 216 200 182 173 162 160 147 116 100 93 139 150 193 195 153 172 217 215 212 210 208 190 189 190 177 185 195 226 237 259 286 251 248 210 182 193 224 214 217 219 202 184 182 183 186 188 186 186 188 188 189 191 190 189 189 190
338 341 342 339 338 338 339 342 344 346 356 359 5 37 110 31 27 321 307 264 248 223 231 223 195 235 265 259 273 296 336 319 249 258 186 174 146 142 264 44 102 112 189 156 159 128 145 197 228 224 206 211 217 195 195 208 222 244 234 267 278 236 261 274 265 224 190 192 235 224 222 225 208 188 181 178 186 191 187 187 189 188 189 192 193 193 191 189
341 342 341 338 336 336 337 342 344 348 358 6 18 50 174 344 342 311 304 302 281 223 216 232 210 242 255 255 264 262 303 282 283 293 189 154 133 152 198 79 125 185 209 144 114 134 199 226 238 237 210 208 252 223 197 222 235 244 230 237 273 238 268 292 274 241 193 190 246 231 220 229 208 188 187 183 189 194 190 190 189 186 187 191 195 194 190 185
342 341 340 338 335 333 336 341 344 351 357 5 21 30 356 356 354 332 298 271 291 255 204 216 204 238 256 259 256 220 177 225 253 291 190 138 131 171 134 109 145 170 162 153 150 158 204 245 238 236 217 193 256 262 215 234 254 239 227 224 235 205 113 287 283 302 179 207 252 227 209 232 157 172 204 197 192 192 191 194 192 191 193 195 195 193 189 186
342 341 340 337 333 331 335 340 350 354 352 354 14 3 357 358 1 350 320 222 298 289 225 206 196 212 238 262 231 154 157 206 176 271 187 139 130 153 141 146 143 142 179 174 159 162 230 253 229 222 228 203 235 266 232 216 259 249 230 224 220 202 194 224 270 357 344 266 266 126 89 321 158 173 203 200 195 195 189 192 195 199 201 200 198 196 193 190
341 341 339 337 334 329 333 341 7 353 349 354 360 350 353 355 356 353 345 72 324 289 250 213 222 224 244 263 213 163 136 222 208 231 172 147 146 128 145 157 129 179 211 169 149 182 250 249 195 193 231 215 220 256 230 185 231 273 247 222 207 216 227 235 267 351 349 306 273 124 98 298 232 186 191 179 193 201 193 197 199 199 201 201 200 199 198 195
340 340 338 338 334 331 336 359 353 349 349 7 349 342 346 350 352 357 61 52 344 287 294 122 181 212 269 284 195 106 79 290 251 208 154 151 145 103 129 177 88 199 200 163 153 200 243 219 170 190 219 214 219 248 229 175 196 267 245 203 197 212 232 251 257 219 264 271 267 120 129 247 277 211 195 179 195 203 198 205 204 199 201 201 201 199 197 196
338 340 339 337 336 336 337 309 336 347 354 337 341 338 340 344 350 16 75 37 350 296 312 293 327 136 230 206 129 97 119 267 282 110 146 152 132 55 112 189 152 207 200 117 141 225 213 178 180 194 199 204 219 242 224 167 166 249 215 148 175 202 216 238 226 200 230 235 296 7 100 129 282 220 189 176 192 208 212 216 210 205 207 203 201 200 197 196
338 341 339 337 337 330 309 299 326 344 326 325 331 333 336 339 349 80 84 60 291 304 147 272 307 228 269 286 100 114 192 235 109 262 273 109 60 44 103 196 176 194 229 115 163 253 222 170 192 188 180 199 216 230 218 163 186 251 229 147 171 187 202 216 186 193 258 99 244 293 89 109 289 252 162 166 189 209 216 218 212 208 209 205 202 201 199 197
340 343 340 337 338 328 301 299 299 316 330 327 331 332 332 337 14 80 76 89 336 318 69 348 314 271 326 22 44 57 19 38 132 253 353 69 25 36 133 206 161 172 226 132 186 247 251 202 188 160 167 206 225 232 213 170 209 249 225 197 206 139 165 186 143 154 58 83 225 252 142 125 284 278 144 165 199 213 217 218 215 211 210 208 204 200 199 198
343 346 341 337 340 348 323 302 288 329 334 329 331 328 328 1 69 64 56 62 14 307 280 355 314 300 63 79 9 358 51 342 222 25 39 43 18 23 48 142 100 122 265 39 226 238 278 269 176 146 181 209 224 232 207 192 214 236 153 215 225 74 57 59 82 101 88 277 252 252 186 142 276 278 177 183 205 208 210 214 215 215 212 208 203 200 198 198
347 348 341 333 332 325 315 313 325 339 330 327 329 329 345 53 63 81 73 31 358 322 324 322 294 327 101 124 95 320 103 336 344 52 43 24 25 26 18 14 42 54 27 354 303 284 323 342 280 269 314 43 238 244 226 206 210 202 96 131 163 291 31 52 348 51 117 247 262 259 234 130 186 267 223 215 219 212 208 212 212 213 211 205 201 201 200 196
350 350 341 327 320 311 300 314 328 327 321 324 332 348 70 43 29 63 338 336 3 324 316 305 289 319 197 141 104 92 94 30 19 65 75 48 45 51 49 28 357 66 50 286 283 330 333 339 325 315 6 32 11 273 303 228 171 149 133 103 118 282 5 157 269 190 173 236 240 232 231 126 218 248 227 223 228 221 215 219 220 215 210 205 201 201 198 195
352 350 340 321 313 313 312 316 320 318 318 324 340 43 86 70 42 349 315 343 331 283 291 296 297 326 93 84 51 40 57 34 18 55 69 75 68 58 45 24 16 93 151 207 46 21 301 294 350 360 357 11 25 173 313 339 164 165 172 146 143 151 138 201 229 191 206 235 228 216 190 177 261 308 315 262 245 236 224 224 224 216 210 207 204 199 197 196
355 349 336 320 316 321 322 324 321 316 322 336 23 68 58 70 8 315 331 300 261 284 302 298 320 7 59 65 48 68 60 26 20 52 45 48 52 15 10 15 9 24 115 68 61 81 142 237 356 24 328 340 7 217 206 205 194 189 176 142 145 161 155 193 204 171 195 214 271 251 188 151 165 317 348 348 320 302 281 265 247 226 216 205 201 199 197 199
356 350 344 341 345 347 339 329 323 321 336 9 68 67 56 53 306 323 350 304 286 322 317 337 26 31 28 19 11 34 80 52 32 58 56 57 52 5 353 3 360 4 51 71 40 38 114 216 291 311 268 344 1 313 246 171 204 265 146 118 127 188 153 145 175 172 166 126 8 257 203 193 177 169 8 10 3 7 7 347 333 288 250 209 197 200 197 199
357 357 360 3 13 18 2 343 330 334 359 56 68 57 67 67 315 309 322 316 312 310 316 7 32 32 14 2 358 355 25 80 71 65 57 61 55 14 355 345 359 9 25 91 80 11 91 240 306 336 320 2 3 313 353 79 194 263 59 112 247 245 133 117 206 289 75 95 249 238 24 335 306 12 9 8 3 6 7 359 355 336 304 232 207 205 200 200
355 355 2 5 7 3 357 2 347 347 21 73 73 62 63 28 330 303 311 315 302 318 11 40 22 21 10 4 1 342 349 41 47 52 39 33 37 6 350 331 357 9 2 64 120 25 98 232 318 10 339 327 339 304 19 42 39 101 75 295 290 235 129 109 115 1 49 114 252 31 80 27 10 346 351 5 8 4 1 355 351 350 346 290 228 211 204 205
352 351 6 5 0 342 336 8 358 3 46 68 74 81 63 360 352 336 329 323 327 11 48 64 29 27 9 14 14 354 0 22 12 42 54 32 35 6 356 332 342 360 348 4 89 360 32 286 305 8 331 302 340 356 6 6 11 81 165 303 26 126 173 59 126 141 97 161 236 32 77 59 31 338 343 6 8 1 0 356 352 354 354 335 275 222 206 207
359 4 19 0 357 344 335 357 354 24 62 63 66 76 38 13 3 354 348 356 23 34 43 51 37 38 25 33 26 9 31 44 14 46 62 27 35 7 12 352 320 346 350 11 56 298 4 60 280 322 336 317 356 28 13 336 346 23 42 8 21 121 163 58 153 152 131 168 187 46 23 17 341 320 345 6 4 4 7 2 357 355 351 346 330 264 210 202
9 60 354 353 357 348 303 357 14 42 62 63 70 49 13 18 351 354 4 19 36 46 44 30 19 44 33 30 42 28 40 47 32 52 50 15 11 352 11 4 320 336 357 31 48 21 13 61 297 305 343 11 27 10 359 345 358 21 32 25 5 343 355 34 31 66 115 146 166 125 65 330 296 318 346 3 6 11 15 10 5 359 353 354 351 333 247 205
17 88 340 352 5 63 117 24 34 45 62 45 41 40 30 33 356 355 4 18 42 54 51 56 45 44 37 32 39 27 40 53 37 51 63 24 34 359 351 352 326 329 1 30 30 24 22 55 22 327 2 41 345 332 7 45 62 63 55 32 9 358 14 69 57 349 41 99 148 136 127 258 288 336 341 359 13 9 15 18 14 9 4 2 359 353 334 234
37 80 346 357 19 84 80 50 11 28 73 46 25 33 31 35 14 360 359 11 38 37 25 45 46 37 36 35 34 28 52 61 29 42 75 32 37 14 325 333 335 334 45 41 329 312 68 79 52 347 341 348 292 360 46 60 79 79 61 29 16 28 31 74 120 319 353 30 353 108 116 226 260 349 341 347 11 6 14 21 21 20 14 11 9 5 2 354
53 57 359 8 34 88 74 50 359 28 58 29 30 42 32 37 24 11 14 18 25 22 24 30 24 31 37 26 28 40 51 57 30 33 62 24 19 355 327 339 352 2 53 37 319 321 42 54 30 339 325 344 323 342 46 45 54 61 36 20 18 15 357 259 184 229 22 27 354 34 104 229 278 343 348 343 2 12 16 18 24 26 20 19 18 14 12 12
103 223 349 16 40 71 79 72 56 57 57 38 50 43 25 43 39 29 32 27 14 12 40 34 16 31 38 26 42 46 42 74 46 17 37 39 355 341 349 1 14 26 39 16 337 344 27 39 49 36 16 13 359 329 349 22 36 29 356 8 10 2 356 346 33 43 70 66 25 67 149 248 296 339 358 359 8 20 17 13 24 31 25 23 24 20 17 17
44 230 281 7 32 54 80 130 105 93 75 59 57 38 18 41 46 40 43 37 22 25 54 35 346 37 49 39 49 41 37 71 73 359 23 23 337 336 356 5 19 39 35 19 12 42 68 45 76 90 96 146 153 331 312 337 1 352 341 356 5 8 8 12 29 26 61 62 35 105 195 286 309 355 9 4 7 14 13 11 17 27 28 27 28 26 22 21
65 37 310 342 16 39 46 29 80 93 76 75 67 34 22 34 26 25 43 46 21 28 55 28 331 30 48 46 59 45 35 51 67 62 47 13 340 324 340 356 21 37 33 23 17 48 98 53 73 110 122 164 183 210 260 301 336 326 332 343 351 3 10 33 46 22 247 356 342 175 166 324 331 358 8 4 6 11 12 10 10 17 23 24 28 29 25 24
91 55 2 331 349 16 25 16 36 54 45 81 81 29 25 39 17 7 27 31 3 29 57 29 16 34 35 44 73 51 24 39 48 59 50 5 336 316 333 356 23 27 29 19 7 45 91 52 59 99 121 166 190 225 263 306 314 292 321 332 330 343 6 37 24 261 141 29 309 235 60 354 335 353 7 5 2 9 15 12 8 13 17 17 26 29 24 22
76 100 278 148 13 10 27 23 39 47 40 50 63 40 37 45 39 19 2 348 359 31 68 34 21 29 25 53 94 63 19 42 36 25 22 8 357 343 345 350 2 15 24 8 354 63 99 88 69 90 97 183 216 272 309 347 283 263 286 304 320 335 343 343 266 250 187 143 245 266 322 6 349 356 9 13 4 9 20 16 11 17 18 16 24 30 25 19
66 63 310 10 77 77 19 25 54 54 43 40 47 40 50 52 38 359 332 5 4 5 70 68 7 360 14 49 97 80 54 79 40 355 5 21 16 15 359 338 334 1 23 17 358 61 101 85 9 86 68 335 306 319 340 356 341 317 276 261 275 281 272 263 249 242 233 225 238 264 288 78 37 359 2 15 10 9 22 26 26 26 20 17 23 28 25 19
77 96 314 25 52 27 360 9 49 58 37 33 47 29 37 58 35 343 344 79 50 345 35 70 15 1 33 62 93 104 149 147 134 148 144 77 12 360 354 291 307 346 8 24 357 27 68 11 360 63 43 321 310 345 358 354 330 306 274 252 245 247 252 251 243 239 242 246 250 253 214 162 25 355 357 7 7 16 23 26 33 31 22 20 23 23 21 17
79 151 131 95 52 4 4 9 48 67 33 17 40 26 16 19 14 360 348 48 125 153 331 78 28 22 39 57 79 117 200 156 138 168 164 144 173 209 224 255 237 349 353 9 6 32 70 19 357 52 35 306 315 354 347 338 323 297 277 250 233 240 260 252 253 264 258 258 276 290 191 224 334 344 357 2 9 25 24 19 25 26 23 26 23 17 17 16
30 92 80 101 76 6 13 24 37 65 51 340 342 22 28 349 351 52 47 336 323 204 214 184 111 59 43 46 56 216 210 162 141 193 177 158 150 138 111 65 74 69 13 74 44 32 97 83 36 69 56 299 314 348 349 350 351 325 255 185 136 131 95 360 344 335 339 321 289 266 206 310 344 347 359 2 10 28 27 19 21 16 18 27 24 16 14 14